Thursday, April 24, 2014
03:55 UTC
  |  Log In   |  Register Free
Airport Search:

Skyway Estates Airport
(60G)

Skyway Estates Airport Diagram
No Airport Diagram Available

FAA data valid effective April 3, 2014 until May 29, 2014 (unless otherwise noted).

 
 
 
 
 
 
 
 
 
 
 
 
 
 

Current Aviation Weather for Skyway Estates Airport (60G)

The most recent METAR observation for KFPK was updated at: 0255 UTC
METAR Summary (Translated METAR)
KFPK
240255Z AUTO 00000KT 10SM CLR 09/M02 A3010 RMK AO2 T00911016
KLAN
(15.8 nm NE from KFPK)
240253Z 25004KT 10SM CLR 09/M03 A3011 RMK AO2 SLP202 T00891033 53008 $
TAF Summary (Translated TAF)
KLAN
(15.8 nm NE from KFPK)
231740Z 2318/2418 35008KT P6SM SKC FM240000 08003KT P6SM BKN140 FM241000 11008KT P6SM BKN120
  Airport Weather Conditions for 60G

Current weather conditions are
not available for 60G


The nearest NOAA weather station
is at FPK, (7.1 nm SW from 60G)
  
 Current Weather at FPK
48° F
Fair
North winds at 0.0 mph
FPK NOAA Radar

Pressure: 30.10 in
Humidity: 47%
Wind: Calm
Dew Point: 29.1°F
Visibility: 10.00 mi


Airport Weather Forecast for 60G

Translated METAR and TAF for KFPK
Translated METAR for KFPK (0355 UTC 24 April 2014)
found at http://aviationweather.gov/adds/metars/
 
METAR text: KFPK 240335Z AUTO 00000KT 10SM CLR 09/M01 A3009 RMK AO2 T00861010
Conditions at: KFPK (CHARLOTTE , MI, US) observed 0335 UTC 24 April 2014
Temperature: 8.6°C (47°F)
Dewpoint: -1.0°C (30°F) [RH = 51%]
Pressure (altimeter): 30.09 inches Hg (1019.0 mb)
Winds: calm
Visibility: 10 or more miles (16+ km)
Ceiling: at least 12,000 feet AGL
Clouds: sky clear below 12,000 feet AGL
Weather: automated observation with no human augmentation;
there may or may not be significant weather present at this time
Translated TAF for KFPK

There is no translated TAF available for this airport

Find All Airport Services Find A Hotel Find A Rental Car Find A Golf Course Find A Restaurant $100 Hamburger



FBO's on the Field
FBO Company Facility Photos Services Transportation Aviation Fuel Prices: Prices include tax
Catering Weather Repair Courtesy Rental Type 100LL JetA JetA+ MOGAS 8087
 
Add another FBO Facility Photos Catering Weather Repair Courtesy Rental Type 100LL JetA JetA+ MOGAS 8087
Services Transportation Aviation Fuel Prices: Prices include tax
There are no FBO's currently reporting fuel at 60G. List your FBO now


GlobalAir.com Airport Resource Center model-print
model-print
model-print
model-print